Location: downtown San Diego
(32.7310°N, 117.1990°W)
Time: 23:17:02
(UTC-08:00)

NOSS 3-1 (A) - Pass Details

Date: 14 June 2018
Orbit: 796 x 1417 km, 63.4° (Epoch: 08 November)

Event Time Altitude Azimuth Distance (km) Brightness Sun altitude
Rises 21:04:06 0° 216° (SW) 3,294 6.3 -12.4°
Reaches altitude 10° 21:06:27 10° 219° (SW) 2,391 5.6 -12.8°
Maximum altitude 21:11:52 67° 302° (WNW) 931 3.7 -13.7°
Drops below altitude 10° 21:17:57 10° 25° (NNE) 2,670 6.0 -14.7°
Sets 21:20:42 0° 28° (NNE) 3,710 6.7 -15.1°
